Location: Martz Observatory
(42.0083°N, 79.0667°W)
Time: 16:42:23
(UTC-04:00)

Daily predictions for brighter satellites

Satellite Brightness Start Highest point End
(mag) Time Altitude Azimuth Time Altitude Azimuth Time Altitude Azimuth
Cosmos 2233 Rocket 4.3 21:04:14 10° N 21:10:31 77° W 21:16:41 10° S
Cosmos 1726 Rocket 3.6 21:06:04 10° N 21:10:31 69° E 21:14:55 10° SSE
SL-8 R/B 4.3 21:07:06 10° WSW 21:11:53 63° NNW 21:16:42 10° ENE
ALOS 2.8 21:10:18 10° S 21:14:54 62° W 21:19:34 10° NNW
Cosmos 158 Rocket 4.2 21:09:56 10° SSW 21:15:00 80° WNW 21:20:15 10° NNE
SeaSat 1 3.1 21:11:06 10° SE 21:15:42 41° ENE 21:20:20 10° NNW
Okean 2 3.7 21:11:52 10° SSE 21:15:53 47° E 21:19:55 10° NNE
Cosmos 1464 Rocket 4.1 21:13:01 10° N 21:19:04 59° E 21:25:07 10° SSE
Cosmos 2058 Rocket 3.1 21:17:09 10° N 21:21:32 69° E 21:25:52 10° SSE
APEX 4.1 21:18:11 10° NNW 21:21:58 46° ENE 21:26:50 10° SE
Cosmos 2098 Rocket 4.1 21:19:17 10° NNW 21:22:22 37° W 21:26:02 10° SSW
Meteor 2-9 Rocket 4.4 21:17:41 10° N 21:23:16 58° ENE 21:28:58 10° SSE
Meteor 1-19 Rocket 4.3 21:19:41 10° S 21:25:20 87° W 21:30:57 10° N
Meteor 2-4 Rocket 3.8 21:21:07 10° S 21:26:55 73° E 21:32:51 10° NNE
Cosmos 1602 Rocket 4.3 21:25:32 10° SSE 21:29:35 35° E 21:33:41 10° NNE
Cosmos 2333 Rocket 3.8 21:24:57 10° SW 21:30:14 41° WNW 21:35:35 10° NNE
Cosmos 1461 3.7 21:26:58 10° NNW 21:31:04 39° NE 21:34:38 12° ESE
Cosmos 2251 Rocket 3.9 21:25:52 10° SSW 21:31:10 71° WNW 21:36:32 10° NNE
deb Chang Zheng 4 3.6 21:27:32 10° NNE 21:31:59 85° ESE 21:36:21 10° SSW
Cosmos 2297 3.9 21:26:52 10° NNW 21:32:35 75° WSW 21:38:17 10° SSE
ATLAS 3B R/B 4.3 21:30:32 10° SE 21:35:01 17° ESE 21:39:28 10° ENE
Milstar 3 Cent rocket 4.0 21:30:21 10° WSW 21:35:24 18° SSW 21:39:07 10° SSE
Cosmos 2034 Rocket 4.2 21:30:38 10° N 21:36:58 62° E 21:43:13 10° SSE
Cosmos 1812 Rocket 4.5 21:35:34 10° NNE 21:39:31 32° ENE 21:42:44 14° SE
PSLV R/B 3.6 21:37:02 13° SSE 21:39:34 46° ENE 21:42:35 10° N
CZ-2C R/B 2.4 21:37:40 10° SSW 21:39:43 27° W 21:41:47 10° NW
ERS-1 Rocket 3.5 21:38:51 10° S 21:43:47 60° WSW 21:48:46 10° NNW
Envisat 3.0 21:39:50 10° SSE 21:44:53 73° ENE 21:49:58 10° N
BREEZE-M DEB (TANK) 2.7 21:40:27 10° SW 21:45:18 45° SSE 21:47:31 10° ENE
USA 234 3.4 21:43:14 12° ESE 21:49:22 71° NE 21:55:55 10° NW
YAOGAN 6 3.5 21:50:25 17° SE 21:52:45 35° ENE 21:56:10 10° N
H-2A R/B 2.8 21:49:27 10° S 21:53:32 50° W 21:57:46 10° NNW
Cosmos 1943 Rocket 4.4 21:54:11 10° NNE 21:56:09 12° NE 21:58:07 10° ENE
MetOp-A 4.2 21:56:20 14° SSE 22:00:52 70° ENE 22:06:13 10° N
Abrixas rocket 2.5 21:58:24 10° WNW 22:01:48 61° SSW 22:03:38 24° SE
Cosmos 1626 Rocket 3.5 21:58:37 10° S 22:03:04 82° E 22:07:31 10° N
ATLAS CENTAUR R/B 4.1 21:59:23 10° WSW 22:03:46 29° NW 22:08:11 10° NNE
Atlas Centaur 2 3.8 22:06:39 10° SW 22:13:19 30° SSE 22:18:15 18° ESE
Cosmos 2228 4.1 22:12:55 10° NNW 22:17:06 43° W 22:21:16 10° SSW
CZ-4C R/B 4.3 22:15:26 23° ESE 22:17:25 36° ENE 22:21:13 10° N
PSLV R/B 3.8 22:18:17 10° SW 22:21:39 40° SSE 22:22:27 34° SE
H-2A R/B 3.1 22:19:20 20° ESE 22:21:43 29° ENE 22:26:02 10° N
Aureole 2 Rocket 4.0 22:18:17 10° SW 22:22:02 40° WNW 22:25:28 10° N
Cosmos 1992 Rocket 4.3 22:17:52 10° N 22:23:00 52° ENE 22:25:45 26° SE
COSMOS 2455 2.8 22:17:27 10° SSW 22:23:20 61° ESE 22:29:16 10° NE
CZ-4 R/B 4.0 22:19:00 10° NNE 22:23:56 59° E 22:27:22 20° S
Cosmos 2369 Rocket 2.8 22:22:54 10° NNW 22:28:20 44° ENE 22:31:20 24° ESE
SPOT 1/Viking Rocket 3.5 22:26:44 23° SSE 22:30:05 90° WSW 22:35:16 10° NNW
SPOT 5 3.6 22:26:56 13° SSW 22:30:36 42° W 22:34:44 10° NNW
DELTA 2 DEB (DPAF) 4.4 22:29:30 30° SE 22:31:29 54° ENE 22:35:53 10° N
ARGOS 3.1 22:29:23 25° SSE 22:32:39 77° ENE 22:38:05 10° N
SL-16 R/B 4.1 22:28:54 10° WSW 22:33:52 31° NW 22:38:54 10° N
Cosmos 1953 4.4 22:35:01 10° NE 22:37:17 15° ENE 22:37:47 14° E
Lacrosse 5 rocket 4.0 22:35:08 10° WNW 22:38:11 21° NNW 22:41:23 10° NNE
Geosat 4.0 22:33:34 10° NNE 22:38:34 60° ESE 22:42:04 19° S
Cosmos 1190 Rocket 4.3 22:37:27 29° SSE 22:39:41 45° ESE 22:44:45 10° NNE
NOAA 11 4.1 22:37:26 27° SSE 22:40:29 82° ENE 22:45:56 10° NNW
Landsat 7 4.0 22:40:04 33° SE 22:42:01 58° ENE 22:46:42 10° N
Cosmos-2242 4.5 22:40:43 10° NNE 22:44:16 23° ENE 22:45:05 22° E
Meteor 1-22 Rocket 4.4 22:39:38 10° N 22:45:06 59° ENE 22:47:40 32° SE
DEBRIS 3.9 22:42:16 10° WNW 22:45:06 20° SW 22:45:19 20° SW
SeaSat 1 4.0 22:50:09 15° SSW 22:53:19 27° WSW 22:57:30 10° NW
Cosmos 1758 Rocket 3.7 22:53:08 44° SE 22:54:08 55° E 22:58:25 10° NNE
Lacrosse 4 Rocket 2.2 22:55:02 32° E 22:55:02 32° E 22:58:04 10° NE
SL-08 RB Rocket 3.8 22:55:15 35° S 22:57:08 72° WSW 23:01:41 10° NNW
CZ-4B R/B 4.5 22:52:57 10° N 22:57:47 47° WNW 23:02:43 10° SW
Terra 2.0 22:56:20 40° SE 22:57:49 58° ENE 23:02:30 10° N
CARTOSAT-1 3.7 22:57:34 45° SE 22:58:38 61° ENE 23:02:55 10° N
Cosmos 1066 Rocket 4.2 22:57:31 24° S 23:01:05 86° W 23:06:55 10° N
Cosmos 1346 Rocket 2.6 23:03:05 58° S 23:03:47 83° E 23:07:43 10° NNE
Cosmos 1825 Rocket 4.2 23:10:25 26° SW 23:12:42 53° W 23:17:04 10° N
Cosmos 1900 4.5 23:17:42 51° SSE 23:18:27 56° ESE 23:23:28 10° NE
Meteor 1-21 4.2 23:19:02 39° S 23:21:19 84° E 23:27:10 10° NNE
Cosmos 1758 4.0 23:17:48 10° N 23:21:45 43° ENE 23:21:46 43° E
Cosmos 1842 3.3 23:23:02 64° ENE 23:23:02 64° ENE 23:26:46 10° NNE
Nadezhda 4 Rocket 4.4 23:21:21 38° SE 23:22:59 46° E 23:28:59 10° NNE
ATLAS 3B R/B 2.8 23:17:03 10° SSW 23:24:45 82° ESE 23:32:19 10° NE
SL-27 R/B 4.4 23:29:34 19° NE 23:29:34 19° NE 23:30:50 10° NE
Cosmos 1943 3.5 23:23:34 17° SW 23:27:56 66° WNW 23:33:38 10° NNE
Cosmos 407 Rocket 3.5 23:27:24 37° SSW 23:29:33 82° WNW 23:34:49 10° NNE
USA 234 4.2 23:30:35 28° SSW 23:32:39 34° SW 23:38:32 10° WNW
Cosmos 1943 Rocket 2.3 23:35:28 10° NNW 23:41:00 66° ENE 23:42:15 51° ESE
Cosmos 1766 3.8 23:38:09 10° NNW 23:42:01 49° W 23:42:13 48° WSW
Cosmos 1954 Rocket 3.9 23:47:02 59° S 23:48:04 85° ESE 23:53:24 10° NNE
CZ-4B R/B 3.9 23:50:30 17° ENE 23:50:30 17° ENE 23:52:30 10° NNE
Cosmos 2279 Rocket 4.4 23:44:19 10° NNW 23:50:25 56° W 23:52:42 37° SSW
